Theta_e
341 343 348 348 349 347 350 349 344 343 344 343 342 343 344 345 341 340 337 338 337 336 339 339 339 339 338 338 334 337 335 337 339 339 338 334 334 336 338 337 339 339 338 337 341 342 341 340 342
342 346 346 343 350 351 355 345 345 342 343 341 344 344 346 346 344 340 339 338 336 337 338 337 338 339 338 338 337 337 335 333 336 335 336 338 336 337 338 336 338 339 339 342 343 342 343 344 343
345 348 346 348 351 352 353 345 343 343 343 344 345 346 347 346 343 340 338 339 336 336 336 338 338 341 340 337 334 338 338 336 338 338 336 336 337 336 331 337 337 341 340 342 341 340 341 343 340
348 348 347 350 354 350 351 343 341 344 343 344 344 346 346 344 344 339 339 339 337 337 336 335 337 342 341 340 339 339 335 338 338 332 337 337 337 339 338 337 333 332 331 338 339 342 343 342 340
345 349 350 352 351 350 347 342 343 345 345 345 344 346 346 346 342 339 339 339 337 337 336 335 337 342 340 342 340 338 325 329 335 339 339 341 334 330 336 331 329 330 328 333 340 341 340 339 341
349 349 351 353 350 349 349 342 345 347 346 346 346 347 346 343 338 340 339 334 331 332 341 340 341 343 337 339 340 340 339 339 338 337 338 332 335 332 328 324 324 325 329 333 340 340 339 341 342
348 351 352 350 352 352 350 346 345 346 346 346 346 347 347 343 337 334 331 332 334 336 331 329 330 333 334 340 341 339 337 337 336 333 332 331 329 328 325 324 325 326 331 339 340 340 341 341 341
350 350 350 349 352 352 349 346 346 346 346 346 345 347 347 344 341 342 335 333 331 329 328 327 327 328 332 339 340 339 336 337 336 333 334 329 327 326 325 324 324 328 336 340 340 341 342 341 341
345 352 351 349 350 349 347 345 344 343 346 345 345 346 344 345 344 342 334 332 333 332 334 333 329 328 332 336 340 339 335 336 336 336 337 332 328 329 329 330 332 338 341 341 340 340 341 341 342
344 349 350 346 346 347 349 348 343 346 345 346 346 346 345 346 344 341 341 337 336 333 330 334 332 331 333 334 338 336 333 333 334 337 338 333 338 343 344 341 338 337 337 338 338 338 338 338 339
348 353 347 346 344 347 348 345 342 344 348 346 346 346 347 345 344 343 340 340 340 334 338 337 335 335 331 335 337 331 331 332 337 338 338 340 341 342 343 343 342 345 345 344 343 343 339 337 338
352 352 347 350 343 346 350 347 342 342 346 345 346 346 346 345 344 342 341 343 342 341 341 338 335 334 333 336 336 329 339 339 338 339 340 342 342 341 339 343 342 342 341 341 343 345 343 341 339
351 350 348 350 347 347 349 348 346 345 344 346 346 346 346 345 344 342 343 343 343 340 341 339 338 335 335 337 341 342 344 343 341 338 339 339 341 337 339 340 341 343 344 344 344 345 344 342 341
351 349 347 348 349 349 350 348 348 343 344 347 347 347 346 346 343 342 343 343 343 341 341 340 342 341 340 340 339 341 341 342 339 338 340 339 342 340 340 341 341 341 343 344 344 343 344 344 342
347 349 348 346 347 349 348 351 349 346 344 346 346 347 346 345 344 343 342 342 343 343 341 341 343 344 341 339 340 343 341 341 343 343 344 343 340 340 339 341 339 341 342 343 344 343 343 345 344
349 348 350 346 347 346 345 348 347 347 346 346 345 346 345 345 345 344 343 341 343 343 341 343 343 344 343 344 340 341 343 344 344 343 342 343 342 341 339 342 342 342 341 342 342 342 343 344 344
342 351 351 350 347 347 348 347 346 345 344 345 345 344 344 343 345 345 343 341 343 342 342 344 344 341 341 343 341 342 342 340 342 342 343 340 343 342 343 343 344 344 345 345 344 343 342 343 345
342 348 350 351 347 346 346 348 346 346 346 341 343 344 344 344 343 344 343 342 342 341 341 344 344 341 340 341 341 343 340 341 339 342 343 342 344 341 342 343 345 344 346 346 346 346 344 344 344
336 345 349 350 347 346 347 347 345 346 345 341 339 343 345 344 343 344 344 343 342 341 342 342 344 341 343 340 342 344 343 341 341 341 344 344 343 339 341 344 344 344 345 344 346 343 344 345 347
324 337 349 347 345 346 346 348 347 345 344 342 338 343 344 344 344 344 344 344 342 342 340 340 341 341 343 342 342 342 343 342 342 340 341 341 341 341 341 344 342 345 344 343 347 344 344 345 346
331 346 348 348 341 344 347 346 348 345 343 343 341 342 344 344 345 345 344 344 343 343 344 339 338 341 341 341 343 342 343 344 345 343 343 339 340 341 341 343 343 344 341 346 348 348 347 346 346
330 345 341 341 344 351 345 347 345 346 344 341 342 341 343 345 345 345 344 344 343 343 344 342 340 340 341 344 344 342 342 343 344 344 343 343 340 343 340 341 338 342 339 346 346 348 349 347 345
342 343 342 344 348 348 349 348 344 345 346 342 341 342 340 344 344 344 344 343 343 343 343 343 342 342 340 340 344 344 342 342 341 345 345 342 342 343 341 340 343 344 344 346 344 345 349 348 347
342 341 345 344 345 349 345 349 349 347 344 342 339 341 341 341 344 344 344 344 344 343 344 344 344 343 344 342 343 344 343 343 339 343 344 341 342 343 345 343 343 344 344 343 344 345 344 347 347
332 332 343 343 348 349 345 349 346 343 340 341 339 340 341 340 343 345 345 344 344 344 343 343 343 343 343 339 340 340 342 343 342 342 344 343 344 343 342 342 343 342 343 339 344 343 344 343 345
334 333 340 346 347 349 345 350 344 339 340 340 342 339 340 341 342 343 344 343 344 345 343 342 343 344 342 340 340 341 341 343 342 343 342 345 342 345 344 344 344 344 341 340 346 342 343 341 341
337 337 334 343 343 347 347 344 342 341 342 342 340 340 340 341 341 343 343 342 344 344 344 343 342 342 342 342 344 342 343 344 345 344 345 345 346 346 345 344 345 344 344 339 338 343 342 342 341
330 329 336 334 346 346 348 342 341 346 350 344 342 339 340 342 341 341 342 342 344 344 344 344 342 341 339 341 344 344 343 344 344 345 344 345 344 346 346 344 344 344 345 345 341 340 342 341 342
321 323 322 327 334 343 349 345 338 340 347 345 341 340 340 342 342 341 341 342 343 344 345 344 344 344 341 341 341 343 342 342 344 345 343 344 345 345 348 345 346 346 347 344 342 339 341 342 346
321 322 320 323 326 333 339 333 343 343 343 342 340 339 340 343 343 343 342 343 344 344 345 344 345 345 345 338 341 343 343 344 346 344 345 344 347 346 348 347 348 348 347 342 346 345 346 345 344
Wind_Speed
3 5 7 1 2 4 2 3 3 9 9 11 25 7 7 7 2 4 24 19 22 22 19 18 16 16 16 16 17 17 16 18 17 17 18 19 17 17 16 15 15 15 16 18 18 16 16 17 17
3 6 3 2 4 4 3 3 11 5 8 31 11 17 10 4 12 26 25 24 22 22 20 18 16 16 17 16 18 17 18 18 18 17 18 17 15 15 15 15 14 14 16 19 17 17 17 15 16
2 6 4 3 3 2 3 0 12 16 19 19 7 13 6 4 20 32 28 26 23 22 20 18 17 16 17 16 17 17 18 18 17 18 17 15 14 13 13 13 14 14 17 18 16 18 17 19 17
0 4 5 3 5 4 3 5 5 11 15 9 23 11 14 15 23 26 29 26 24 22 19 17 16 14 15 16 16 16 17 19 18 16 17 15 13 12 12 12 13 13 13 15 17 15 15 16 15
4 1 3 4 3 5 4 13 10 5 6 14 15 9 8 16 20 29 28 26 24 22 19 17 16 15 15 15 15 15 17 18 16 15 13 11 13 13 14 12 13 12 13 16 15 15 15 16 16
2 3 3 3 1 4 4 10 17 18 20 19 18 15 6 23 29 29 25 23 20 19 19 17 15 15 15 15 16 16 16 16 15 14 14 14 14 14 15 14 14 14 14 15 15 15 15 15 17
1 2 2 3 3 3 3 6 6 18 20 10 20 6 18 27 29 28 25 22 20 17 16 15 14 14 15 15 15 16 16 16 15 16 16 16 16 16 16 15 15 16 17 16 15 13 12 11 11
3 3 2 1 2 2 7 1 13 21 10 20 26 6 15 29 28 25 23 20 18 16 14 14 14 14 15 15 14 15 15 16 17 18 18 18 19 19 18 17 17 18 20 18 15 11 8 8 8
4 3 3 3 5 2 12 6 13 4 23 15 1 28 34 31 27 24 24 21 18 16 15 15 15 15 15 16 15 15 16 17 18 18 17 18 20 22 22 20 19 19 19 17 14 11 9 6 5
4 3 3 4 7 5 15 7 17 12 14 20 28 25 33 32 28 29 25 23 19 18 17 15 16 16 16 17 15 15 18 17 18 18 19 20 21 20 18 17 16 16 15 12 10 8 5 3 3
5 3 9 12 20 6 8 9 15 25 10 30 35 35 37 32 29 23 24 20 20 21 17 16 17 16 16 18 16 16 18 19 18 19 20 20 17 14 12 12 11 11 10 9 7 5 4 4 1
3 3 21 14 23 10 9 8 16 22 12 34 37 39 39 35 30 26 25 22 22 18 18 17 17 18 17 18 18 20 19 17 19 20 19 16 12 13 11 13 11 12 10 12 12 15 11 5 6
2 6 6 7 14 13 17 15 14 18 25 37 36 37 37 33 28 25 21 21 22 20 19 18 18 18 18 19 19 16 15 16 18 18 17 13 9 11 11 7 12 11 11 9 9 11 10 8 11
4 12 8 9 5 12 14 13 7 17 34 31 35 32 35 33 29 28 24 24 21 20 20 20 18 18 14 15 16 16 16 16 18 17 13 8 8 7 10 14 12 10 8 6 8 9 6 8 7
9 5 2 11 8 4 2 12 2 21 31 32 34 35 32 31 29 27 23 22 21 20 19 19 18 16 16 15 15 15 16 14 14 13 11 8 6 8 6 8 9 4 5 5 3 4 6 4 5
3 2 2 3 6 4 1 2 5 22 30 29 29 27 27 31 32 26 24 21 23 22 21 19 19 17 14 14 15 15 15 14 12 10 9 9 8 6 8 9 9 7 6 4 4 4 5 8 7
5 2 3 3 3 4 2 5 12 14 20 27 29 31 33 31 31 28 26 22 24 21 22 21 19 17 14 13 16 14 14 11 11 9 11 10 8 12 8 8 8 8 7 7 7 6 8 6 8
4 2 1 1 4 2 1 5 7 22 11 26 32 31 29 33 37 32 29 25 23 21 20 23 20 18 16 15 16 16 14 13 12 9 11 10 6 7 10 7 7 6 5 6 5 5 5 3 3
3 3 3 4 8 3 2 2 4 15 9 15 25 31 33 37 36 32 30 29 26 22 22 24 25 22 19 18 16 15 14 15 12 11 8 6 7 8 8 7 6 6 4 3 4 3 6 3 2
2 0 5 6 5 3 1 4 2 4 6 2 23 31 34 35 37 37 33 31 29 27 24 24 27 23 20 20 17 14 15 13 10 8 8 9 9 7 12 9 7 6 5 3 4 7 6 2 4
4 4 8 6 3 4 3 1 4 4 5 7 10 35 36 42 43 40 37 33 30 29 28 25 27 25 23 21 17 18 18 16 13 11 8 7 9 7 10 10 8 5 4 4 5 6 2 1 1
6 4 8 11 10 3 2 3 6 9 6 7 11 20 32 36 43 41 39 35 32 27 27 27 24 25 26 20 19 18 19 21 17 15 9 8 10 9 9 8 9 5 6 6 4 4 3 1 2
2 8 7 5 5 3 2 1 5 13 14 11 15 17 27 37 40 44 41 34 30 26 26 29 26 24 28 23 23 20 18 16 16 16 11 10 10 12 9 10 8 6 5 6 6 2 2 2 3
18 17 12 6 3 2 5 6 3 6 22 15 10 23 20 37 42 43 40 35 31 27 26 26 27 23 22 22 26 25 22 18 16 16 13 12 10 15 11 8 8 7 6 8 8 4 3 0 1
6 5 3 5 3 3 3 4 7 6 10 21 15 25 25 31 44 40 40 38 34 31 27 27 26 25 22 23 25 24 25 22 20 19 15 15 14 14 15 12 8 10 10 10 10 8 5 5 2
9 5 5 6 5 4 3 3 5 4 6 29 35 31 30 28 44 47 45 39 36 32 29 27 27 26 25 24 23 23 25 23 21 20 20 19 16 15 16 16 12 11 10 13 9 9 11 7 8
6 4 4 6 3 2 2 5 9 12 15 17 33 25 34 35 43 49 46 40 38 33 31 27 24 26 26 27 24 25 26 25 20 18 20 19 16 16 16 18 16 13 10 11 14 10 12 10 9
6 7 3 2 5 4 2 0 8 7 8 7 20 34 36 41 43 45 47 43 40 35 32 26 23 20 24 26 26 25 25 22 22 17 17 19 17 16 15 17 16 13 11 12 14 15 12 11 11
3 1 5 4 4 4 4 5 11 4 8 7 12 25 33 39 45 45 47 44 40 37 35 29 27 22 20 24 25 24 23 23 19 18 19 20 18 16 13 15 14 13 14 15 16 15 15 13 13
1 4 3 4 4 2 3 5 6 11 8 10 4 16 26 32 43 43 43 44 41 38 38 33 29 26 21 21 25 25 24 21 20 18 16 18 17 13 13 13 13 13 12 15 14 15 15 15 16
Wind_Direction
42 359 341 189 67 64 57 352 111 118 138 155 157 135 108 75 137 165 144 151 152 143 137 133 131 131 131 129 125 126 127 127 126 125 121 116 112 112 110 111 111 111 114 113 111 113 111 111 100
2 342 303 253 72 55 30 353 123 105 130 130 115 112 49 62 109 135 147 152 148 143 137 134 132 134 131 129 131 130 127 126 125 125 125 117 116 110 111 112 113 112 116 117 115 112 111 109 103
344 355 14 45 55 81 128 93 118 117 129 126 107 86 79 91 132 141 146 150 149 143 138 135 133 131 133 130 130 128 131 129 128 125 122 118 116 112 109 116 112 113 123 121 107 103 103 108 98
27 27 51 61 12 38 354 137 124 107 91 107 106 80 77 133 135 147 146 148 147 142 140 138 133 128 130 131 132 132 135 137 133 129 124 118 115 113 114 106 108 117 123 121 111 105 105 101 89
310 114 64 66 10 317 347 127 128 73 79 114 115 100 87 154 147 146 147 149 149 145 143 141 138 133 135 135 132 130 127 129 121 123 119 114 108 106 101 102 111 118 120 120 112 101 96 93 82
346 355 69 112 115 281 300 170 116 100 107 105 98 105 97 146 145 146 147 149 150 147 145 148 147 142 140 141 137 136 132 128 126 122 117 112 112 109 108 108 115 122 121 121 113 103 90 81 72
300 58 42 117 40 73 289 203 125 119 116 99 128 96 138 149 147 147 147 150 150 152 152 154 152 149 143 141 140 137 135 130 121 116 113 109 109 107 107 110 112 115 125 125 117 103 91 78 70
284 114 88 135 103 109 277 62 132 123 102 128 123 143 156 153 153 149 150 153 154 156 156 156 156 154 147 141 138 138 137 133 121 114 109 107 110 109 108 106 103 109 123 127 127 118 101 81 69
267 77 156 182 139 195 269 144 141 111 127 134 233 151 151 154 154 154 155 156 154 155 154 152 153 153 151 148 141 141 143 138 128 122 113 113 113 105 101 98 99 112 123 125 126 123 118 92 36
160 114 148 255 182 200 213 204 131 126 132 113 118 145 155 155 159 154 155 153 157 156 148 147 149 152 154 154 146 146 147 140 134 125 123 123 115 110 109 108 108 112 119 123 121 124 115 95 359
181 186 147 227 241 182 221 137 156 145 136 148 147 156 161 160 162 162 156 149 141 140 142 146 151 151 153 153 149 148 143 135 133 134 129 127 121 114 108 105 97 106 119 128 125 125 143 153 141
135 83 175 204 216 201 235 151 167 164 174 161 160 164 166 170 169 167 160 153 151 145 140 141 148 147 149 153 148 142 141 141 137 138 136 132 120 112 112 97 104 104 98 102 97 87 85 149 77
125 109 75 162 205 210 192 180 185 198 170 164 161 166 169 173 170 171 160 158 150 145 145 140 137 141 146 151 152 154 155 147 145 145 145 148 127 124 121 110 122 115 107 95 101 100 86 88 81
120 104 116 84 139 172 174 134 207 160 165 157 157 166 175 176 177 171 170 169 159 155 154 150 144 141 147 163 160 154 150 150 146 147 148 146 140 128 101 118 120 119 110 87 94 80 100 86 75
124 104 77 24 20 78 57 155 94 159 170 162 166 177 179 181 180 177 172 176 167 166 159 158 149 152 153 149 166 160 161 158 150 158 157 150 153 138 130 145 128 124 142 109 99 67 98 86 92
78 85 90 339 358 31 294 104 239 176 163 167 169 174 174 189 186 185 182 179 171 171 169 161 161 166 178 188 170 166 157 163 174 176 158 159 146 154 142 134 112 100 121 117 99 83 119 128 143
17 74 60 106 337 74 321 162 214 174 180 173 174 176 182 190 191 190 186 177 174 175 173 168 168 165 169 173 180 177 167 174 176 171 161 151 135 140 145 139 120 102 90 99 103 90 106 130 133
169 157 107 61 211 151 162 141 167 222 206 179 182 178 183 189 188 187 187 180 177 171 173 178 172 173 174 175 170 167 174 186 187 181 163 169 158 176 169 152 117 120 101 104 84 80 111 102 32
140 114 87 6 12 358 82 136 144 222 220 174 160 171 180 188 187 188 188 180 178 169 173 178 183 182 182 174 172 179 182 192 195 194 179 184 182 175 178 170 145 147 176 113 51 61 134 119 67
103 7 126 63 311 346 61 216 107 206 222 230 162 172 181 181 185 191 186 182 180 172 170 172 185 191 188 188 188 183 179 172 167 167 185 190 194 191 183 181 180 164 187 178 99 107 141 141 115
0 263 164 131 134 227 210 257 220 235 262 227 153 180 182 184 187 191 188 186 183 180 179 181 179 186 187 191 189 188 178 181 180 169 172 188 201 195 180 178 182 196 182 167 106 117 170 186 172
224 174 134 137 115 263 24 272 207 218 216 209 195 174 181 189 190 189 190 191 190 191 187 183 184 192 190 195 197 193 193 198 190 195 186 190 195 203 192 190 204 210 189 173 170 108 88 69 212
202 160 148 114 71 189 176 24 267 178 231 228 211 194 189 193 188 191 192 194 194 195 192 190 189 188 200 209 205 205 204 209 205 199 200 197 195 197 212 208 213 218 195 182 192 172 98 64 86
132 92 67 56 47 273 205 184 266 192 208 222 190 203 179 197 195 197 196 195 195 198 197 197 197 197 203 210 207 211 212 206 198 203 206 195 195 199 204 217 229 230 229 213 211 229 194 23 34
80 80 100 49 14 258 328 169 262 224 220 211 194 203 193 194 200 195 196 196 197 200 201 202 203 202 203 204 206 212 212 214 217 216 215 210 212 216 223 231 232 229 229 228 232 239 252 239 259
186 163 152 158 182 230 85 263 264 181 220 205 213 213 200 194 199 202 201 200 200 202 200 203 207 206 203 202 204 211 213 218 220 226 217 221 223 228 231 233 227 227 232 229 237 240 251 250 246
212 198 168 99 2 123 282 285 277 240 234 213 217 207 188 192 196 201 203 204 203 203 204 202 207 207 207 204 207 208 214 212 211 216 220 223 226 222 224 227 232 230 233 235 237 241 246 250 244
177 158 98 33 150 152 246 90 256 229 211 227 198 202 192 187 193 201 204 204 206 206 206 207 207 209 208 205 206 212 210 211 211 219 219 216 215 218 221 223 226 229 237 244 237 237 247 250 248
312 222 56 120 140 156 168 240 231 191 201 193 207 202 188 180 189 197 202 207 208 208 207 208 209 212 218 212 209 209 209 208 215 218 216 217 219 224 238 225 224 234 246 251 235 234 239 243 239
210 119 131 140 217 201 154 274 15 84 85 103 130 190 193 186 185 192 197 204 208 211 211 211 212 215 223 222 215 214 215 216 217 220 223 220 224 229 222 224 220 231 247 238 236 241 237 248 240